Location: Wellington
(41.3000°S, 174.7830°E)
Time: 17:59:09
(UTC+13:00)

Cosmos 1386 Rocket - Pass Details

Date: 24 January 2019
Orbit: 930 x 1005 km, 83.0° (Epoch: 22 February)

Event Time Altitude Azimuth Distance (km) Brightness Sun altitude
Exits shadow 23:09:17 28° 354° (N) 1,736 5.4 -20.9°
Maximum altitude 23:12:48 89° 269° (W) 966 4.4 -21.3°
Drops below altitude 10° 23:18:58 10° 173° (S) 2,687 7.4 -22.0°
Sets 23:21:28 0° 172° (S) 3,632 8.2 -22.2°
